Other Public Products
Issued by NWS Grand Forks, ND

Home | Current Version | Previous Version | Graphics & Text | Print | Product List | Glossary On
Versions: 1 2 3 4 5 6 7 8 9 10 11 12 13 14 15 16 17 18 19 20 21 22 23 24 25 26 27 28 29 30 31 32 33 34 35 36 37 38 39 40 41 42 43 44 45 46 47 48 49 50
000
FPUS83 KFGF 102131
OPUFGF
PRAIRIE TO PINES WEATHER ROUNDUP
NATIONAL WEATHER SERVICE EASTERN NORTH DAKOTA/GRAND FORKS ND
400 PM CDT THU JUL 10 2014

 **SATELLITE DATA USED TO AUGMENT SKY COVER AT AUTOMATED STATIONS**
 *****  WEATHER ACROSS EASTERN NORTH DAKOTA  *****

CITY           SKY/WX    TMP DP  RH WIND       PRES   REMARKS
GRAND FORKS    CLOUDY    80  59  48 SE16      29.85F
GRAND FORKS AF CLOUDY    79  60  52 SE13      29.86F
GRAND CITY NWS   N/A     79 N/A N/A SE7         N/A
BUXTON           N/A     80  64  58 SE13        N/A
DEVILS LAKE    CLOUDY    79  63  57 S13G21    29.81F
FARGO          PTSUNNY   83  58  42 SE17      29.86F
WAHPETON ARPT  MOCLDY    81  59  47 S9G17     29.87F
$$

 *****  WEATHER ACROSS CENTRAL AND WESTERN NORTH DAKOTA  *****

CITY           SKY/WX    TMP DP  RH WIND       PRES   REMARKS
JAMESTOWN      CLOUDY    75  62  64 S14       29.86S
BISMARCK       CLOUDY    77  64  64 SE5       29.82F
MINOT          MOSUNNY   79  63  57 S14       29.77F
MINOT AFB      MOSUNNY   78  66  65 S14       29.76F
GARRISON         N/A     77  66  68 S13       29.80S
WILLISTON      SUNNY     90  59  35 S12G20    29.72F
DICKINSON      SUNNY     81  64  56 S13       29.80F
HETTINGER      SUNNY     79  64  60 S6        29.84F
$$

 *****  OTHER OBSERVATIONS NORTHEAST NORTH DAKOTA  *****

CITY           SKY/WX    TMP DP  RH WIND       PRES   REMARKS
WALHALLA       FAIR      77  64  65 S13G20      N/A
LANGDON        FAIR      79  63  57 S16G25    29.83F
CAVALIER       FAIR      77  63  61 S10G16    29.83F
GRAFTON        FAIR      79  63  57 S15       29.84F
CANDO          FAIR      77  63  61 S20       29.82S
FORT TOTTEN      N/A     77  59  54 S12       29.95
ROLLA            N/A     77  59  53 S17G24    29.83S
RUGBY          FAIR      77  64  65 S13G21    29.79F
 ***** THE ABOVE OBSERVATIONS ARE NON NWS ARE NOT QUALITY
        CONTROLLED AND MAY MIS-REPORT RAIN FOR SNOW...
$$

 *****  OTHER OBSERVATIONS SOUTHEAST NORTH DAKOTA *****

CITY           SKY/WX    TMP DP  RH WIND       PRES   REMARKS
COOPERSTOWN    NOT AVBL
VALLEY CITY    FAIR      77  64  65 S13G20    29.87S
OAKES          NOT AVBL
GWINNER        MOCLDY    79  66  65 SE8       29.88R
BUFFALO          N/A     78  55  44 S15         N/A
WYNDMERE       NOT AVBL
 ***** THE ABOVE OBSERVATIONS ARE NON NWS ARE NOT QUALITY
       CONTROLLED AND MAY MIS-REPORT RAIN FOR SNOW...
$$

  *****  WEATHER ACROSS NORTHERN MINNESOTA  *****

CITY           SKY/WX    TMP DP  RH WIND       PRES   REMARKS
FLAG ISLAND    MOSUNNY   72  61  68 S9        29.90F
WARROAD        PTSUNNY   79  61  53 S9        29.91S
ROSEAU         PTSUNNY   79  61  53 S12G20    29.90S
HALLOCK        CLOUDY    79  61  53 S14       29.85S
THF RVR FALLS  CLOUDY    77  57  50 S10       29.90F
HALSTAD          N/A     81  57  44 SE16        N/A
FOSSTON        CLOUDY    75  59  57 SE7       29.93F
BAUDETTE       PTSUNNY   77  56  48 S12       29.94S
WASKISH        MOSUNNY   79  57  47 SW8       29.94F
CROOKSTON      CLOUDY    79  61  53 S12       29.88F
$$
  *****  WEATHER ACROSS CENTRAL AND WEST MINNESOTA  *****

CITY           SKY/WX    TMP DP  RH WIND       PRES   REMARKS
BEMIDJI        PTSUNNY   77  57  49 S12       29.94F
PARK RAPIDS    CLOUDY    78  59  51 S14       29.96S
WADENA         CLOUDY    81  61  50 S13G18    29.94F
DETROIT LAKES  CLOUDY    79  59  50 S16       29.93F
MOORHEAD       PTSUNNY   82  57  42 SE15      29.87F
FERGUS FALLS   PTSUNNY   81  57  44 S14       29.90S
ELBOW LAKE     NOT AVBL
MORRIS MN      PTSUNNY   79  64  61 S12       29.91S
STAPLES        CLOUDY    79  61  53 SE8       29.95F
WHEATON        PTSUNNY   79  63  57 SE9G18    29.89F
$$
  *****  WEATHER ELSEWHERE ACROSS MINNESOTA  *****

CITY           SKY/WX    TMP DP  RH WIND       PRES   REMARKS
DULUTH         MOSUNNY   76  58  53 SE9       30.01F
INTRNTL FALLS  SUNNY     77  51  40 SW6       29.94F
ELY            MOSUNNY   79  52  38 S7        29.98F
CLOQUET        MOSUNNY   81  52  36 S9G16     30.00S
BRAINERD       PTSUNNY   85  59  41 S12       29.98S
HIBBING        SUNNY     81  45  28 VRB6      29.98F
ALEXANDRIA     CLOUDY    81  60  48 S20       29.95F
SAINT CLOUD    PTSUNNY   84  59  42 S10       29.97S
MINNEAPOLIS    CLOUDY    84  58  40 SW13      29.99F
$$

  *****  WEATHER ACROSS SOUTH DAKOTA  *****

CITY           SKY/WX    TMP DP  RH WIND       PRES   REMARKS
SIOUX FALLS    CLOUDY    81  63  54 S21       29.94S
BROOKINGS      NOT AVBL
WATERTOWN      LGT RAIN  76  63  64 S14G22    29.92S
HURON          PTSUNNY   80  65  59 SE6G18    29.85F
SISSETON         N/A     79  65  62 S13       29.86F
ABERDEEN       CLOUDY    74  66  76 SE7       29.85S
MITCHELL       CLOUDY    86  66  51 S21G29    29.86S
PIERRE         PTSUNNY   81  66  60 S12       29.80F
MOBRIDGE       PTSUNNY   77  66  68 SE13      29.79F
RAPID CITY     PTSUNNY   77  66  68 CALM      29.87F
$$

  *****  SOME WEATHER IN NEARBY STATES *****

CITY           SKY/WX    TMP DP  RH WIND       PRES   REMARKS
GLASGOW MT     SUNNY     90  54  29 NW21G29   29.75S
GREAT FALLS MT FAIR      89  36  15 VRB6G18   29.83F
CHEYENNE WY    PTSUNNY   81  46  29 W14       30.07S
SCOTTSBLUFF NE SUNNY     96  52  22 VRB7      29.88F HX  93
OMAHA NE       MOSUNNY   85  64  49 SE22      29.97F
DES MOINES IA  MOSUNNY   84  57  39 SE16      30.05F
DAVENPORT IA   CLOUDY    79  60  52 S10       30.13S
CHICAGO IL     MOSUNNY   77  54  44 E9        30.15S
EAU CLAIRE WI  MOSUNNY   82  60  47 SW8       30.03F
LA CROSSE WI   MOSUNNY   83  63  50 S12       30.06F HAZE
$$

  *****  SOME NATIONAL WEATHER *****

CITY           SKY/WX    TMP DP  RH WIND       PRES   REMARKS
LA GUARDIA NY  MOSUNNY   80  59  48 NE8       30.08F
RALEIGH NC     CLOUDY    81  70  69 NE8       30.06R THUNDER
ATLANTA GA     PTSUNNY   84  69  60 SW8       30.05F
NEW ORLEANS LA CLOUDY    79  72  79 CALM      30.06S
OKLAHOMA CITY  MOSUNNY   93  71  48 SE12      29.96S HX 100
ALBUQUERQUE NM MOSUNNY   89  48  24 CALM      30.08F
SALT LAKE CITY FAIR      90  51  26 N7        29.94F
LOS ANGELES CA FAIR      75  61  61 W13       29.93F
BOISE ID       FAIR      94  46  19 N7        29.87F HX  90
SEATTLE WA     FAIR      79  54  41 W9        29.94F
$$

*** WEATHER ACROSS MANITOBA...SASKATCHEWAN AND ONTARIO ***
                ***ONTARIO***

CITY           SKY/WX    TMP DP  RH WIND       PRES   REMARKS
GERALDTON      PTSUNNY   73  46  38 SW9       30.01F
THUNDER BAY    MOSUNNY   75  54  46 S21       30.01F
SIOUX LOOKOUT  PTSUNNY   75  50  41 SW13      29.93F
TORONTO        PTSUNNY   68  48  49 SE5       30.17F
BIG TROUT LK   MOSUNNY   77  54  44 SW12      29.81
PICKLE LAKE    PTSUNNY   77  48  36 SW10G21   29.91F
DRYDEN         SUNNY     77  48  36 SW13G20   29.93F
KENORA         PTSUNNY   75  55  50 S15       29.93F
$$
                *** MANITOBA***

CITY           SKY/WX    TMP DP  RH WIND       PRES   REMARKS
BRANDON        MOSUNNY   81  61  50 SW20G25   29.75F
DAUPHIN        PTSUNNY   84  63  48 SW16G23   29.63R
ISLAND LAKE    PTSUNNY   77  54  44 SW12      29.71F
PILOT MOUND      N/A     73  64  73 S14         N/A
THE PAS        MOSUNNY   77  63  61 W15G22    29.57R
THOMPSON       LGT RAIN  64  64 100 SE8       29.57F FOG
WINNIPEG       PTSUNNY   81  63  54 S23       29.81F
LYNN LAKE      CLOUDY    63  59  88 W13G20    29.48S
CHURCHILL      PTSUNNY   59  52  77 E20       29.77F
GILLAM         CLOUDY    70  61  73 E10       29.67F
$$
                ***SASKATCHEWAN***

CITY           SKY/WX    TMP DP  RH WIND       PRES   REMARKS
ESTEVAN        MOSUNNY   86  64  48 SW10      29.72F
KINDERSLEY     MOSUNNY   73  46  38 N3        29.85
LLOYDMINSTER   PTSUNNY   66  46  48 W20G26    29.80R
PRINCE ALBERT  MOSUNNY   73  46  38 W22G28    29.71F
REGINA         SUNNY     77  59  53 N18G25    29.75R
YORKTON        MOSUNNY   79  59  50 NW18G24   29.70R



USA.gov is the U.S. government's official web portal to all federal, state and local government web resources and services.